15min,AgWx,beryljct,423,22DEC2020:00:00:00,25.1,12.77,23.9,24.4,24.2,25.3,23.7,75,79,73,0.345,17.5,19.3,16.2,1.863,0.5,301,46,2.0,-0.00017,-0.00025,31.5,34.0,8,0,0,.,6.03,0.00,0.00
15min,AgWx,beryljct,423,22DEC2020:00:15:00,24.7,12.76,23.5,24.0,24.1,25.4,23.0,78,81,75,0.328,18.1,20.3,16.2,0.088,0.8,152,3.6,2.9,-0.00015,-0.00021,31.3,33.9,8,0,0,.,6.04,0.00,0.00
15min,AgWx,beryljct,423,22DEC2020:00:30:00,24.2,12.76,22.2,22.2,22.4,23.8,20.4,75,80,72,0.310,15.7,17.9,12.8,1.951,0.6,167,63,2.1,-0.00015,-0.00022,31.1,33.9,8,0,0,.,6.04,0.00,0.00
15min,AgWx,beryljct,423,22DEC2020:00:45:00,23.7,12.75,19.0,21.3,21.3,23.2,18.1,80,87,75,0.307,16.1,19.1,12.0,3.595,1.6,333,42,3.6,-0.00010,-0.00013,31.0,33.9,8,0,0,.,6.04,0.00,0.00
15min,AgWx,beryljct,423,22DEC2020:01:00:00,23.3,12.74,20.1,19.8,22.0,24.8,19.6,79,85,75,0.291,16.4,20.6,13.4,3.157,2.0,252,90,4.6,-0.00009,-0.00011,30.8,33.9,8,0,0,.,6.04,0.00,0.00
15min,AgWx,beryljct,423,22DEC2020:01:15:00,22.7,12.73,18.3,17.7,17.9,19.9,17.3,79,81,77,0.271,12.6,14.4,12.1,0.702,1.2,40,54,4.8,-0.00011,-0.00014,30.6,33.9,9,0,0,.,6.04,0.00,0.00
15min,AgWx,beryljct,423,22DEC2020:01:30:00,22.0,12.73,17.8,17.8,17.2,17.8,16.4,79,81,76,0.273,11.7,12.9,10.7,0.943,2.0,146,47,4.7,-0.00008,-0.00009,30.5,33.8,8,0,0,.,6.04,0.00,0.00
15min,AgWx,beryljct,423,22DEC2020:01:45:00,21.3,12.73,18.8,17.8,17.5,18.4,16.6,78,81,77,0.265,11.8,12.9,10.9,4.121,3.5,171,24,5.3,-0.00004,-0.00004,30.3,33.8,9,0,0,.,6.04,0.00,0.00
15min,AgWx,beryljct,423,22DEC2020:02:00:00,21.1,12.71,22.6,20.2,19.8,20.6,17.9,78,82,76,0.304,14.1,15.6,12.4,4.735,4.5,183,19,6.1,-0.00002,-0.00002,30.2,33.8,8,0,0,.,6.04,0.00,0.00
15min,AgWx,beryljct,423,22DEC2020:02:15:00,21.2,12.71,24.1,23.5,21.8,23.5,19.8,79,83,76,0.337,16.4,17.8,13.5,0,2.0,75,83,5.3,-0.00009,-0.00011,30.0,33.7,8,0,0,.,6.04,0.00,0.00
15min,AgWx,beryljct,423,22DEC2020:02:30:00,21.3,12.7,26.3,24.7,22.2,24.7,20.4,79,82,74,0.363,16.7,19.5,14.2,1.359,1.3,188,7.8,3.0,-0.00012,-0.00015,29.9,33.7,8,0,0,.,6.04,0.00,0.00
15min,AgWx,beryljct,423,22DEC2020:02:45:00,21.7,12.69,20.0,20.3,23.5,26.3,20.3,80,85,75,0.302,18.3,22.3,14.6,4.56,3.2,272,53,6.1,-0.00006,-0.00007,29.7,33.6,8,0,0,.,6.04,0.00,0.00
15min,AgWx,beryljct,423,22DEC2020:03:00:00,21.9,12.68,24.2,23.0,22.8,25.3,19.7,81,85,76,0.350,17.8,20.3,14.8,0,3.8,299,37,7.4,-0.00005,-0.00005,29.6,33.6,8,0,0,.,6.04,0.00,0.00
15min,AgWx,beryljct,423,22DEC2020:03:15:00,22.1,12.67,20.2,20.2,23.0,26.8,19.5,80,84,75,0.302,17.7,22.4,13.9,3.924,3.1,320,21,4.7,-0.00006,-0.00007,29.4,33.6,8,0,0,.,6.04,0.00,0.00
15min,AgWx,beryljct,423,22DEC2020:03:30:00,21.8,12.67,18.2,18.4,18.5,20.1,16.8,80,84,78,0.276,13.5,15.1,11.9,0.877,3.1,324,31,5.6,-0.00005,-0.00006,29.3,33.5,8,0,0,.,6.04,0.00,0.00
15min,AgWx,beryljct,423,22DEC2020:03:45:00,21.3,12.67,20.6,20.1,19.0,20.3,17.8,82,84,79,0.302,14.3,16.0,12.5,5.086,3.4,335,34,6.2,-0.00005,-0.00005,29.2,33.5,8,0,0,.,6.04,0.00,0.00
15min,AgWx,beryljct,423,22DEC2020:04:00:00,21.2,12.66,24.3,23.4,20.8,23.4,19.3,82,85,80,0.347,16.1,18.4,14.2,2.389,2.5,320,31,6.0,-0.00007,-0.00009,29.1,33.4,8,0,0,.,6.04,0.00,0.00
15min,AgWx,beryljct,423,22DEC2020:04:15:00,21.4,12.65,25.6,26.0,24.5,26.6,22.8,79,82,76,0.364,18.9,20.9,17.3,0,2.7,312,19,4.5,-0.00007,-0.00008,29.0,33.4,8,0,0,.,6.04,0.00,0.00
15min,AgWx,beryljct,423,22DEC2020:04:30:00,21.7,12.64,23.4,21.3,22.2,26.0,20.6,79,83,74,0.316,16.8,19.4,15.5,4.099,4.5,130,32,6.8,-0.00003,-0.00002,28.9,33.3,8,0,0,.,6.04,0.00,0.00
15min,AgWx,beryljct,423,22DEC2020:04:45:00,21.7,12.64,20.4,20.1,20.8,22.1,20.0,81,82,79,0.304,15.9,17.4,15.1,4.56,4.8,165,13,6.3,-0.00003,-0.00002,28.8,33.3,8,0,0,.,6.04,0.00,0.00
15min,AgWx,beryljct,423,22DEC2020:05:00:00,21.3,12.62,17.9,17.8,19.0,20.2,17.8,82,83,80,0.276,14.4,15.6,13.2,4.341,3.1,309,83,5.2,-0.00006,-0.00006,28.7,33.2,8,0,0,.,6.04,0.00,0.00
15min,AgWx,beryljct,423,22DEC2020:05:15:00,20.6,12.61,18.9,18.7,17.3,18.8,16.4,83,86,81,0.297,13.1,15.2,12.0,2.587,3.3,314,15,5.7,-0.00005,-0.00006,28.6,33.2,8,0,0,.,6.04,0.00,0.00
15min,AgWx,beryljct,423,22DEC2020:05:30:00,20.2,12.61,24.7,23.3,20.5,23.3,18.6,83,86,80,0.346,16.2,19.0,13.5,2.389,2.8,314,22,5.7,-0.00007,-0.00008,28.5,33.1,8,0,0,.,6.05,0.00,0.00
15min,AgWx,beryljct,423,22DEC2020:05:45:00,20.4,12.59,26.5,26.1,24.2,26.1,22.4,80,82,78,0.379,18.9,20.5,16.7,2.368,1.3,252,40,3.4,-0.00013,-0.00017,28.3,33.1,8,0,0,.,6.04,0.00,0.00
15min,AgWx,beryljct,423,22DEC2020:06:00:00,21.1,12.58,34.5,31.8,27.8,32.1,25.3,74,79,65,0.393,20.6,22.4,18.2,5.283,2.1,203,60,5.3,-0.00009,-0.00011,28.3,33.0,8,0,0,.,6.04,0.00,0.00
15min,AgWx,beryljct,423,22DEC2020:06:15:00,24.4,12.58,42.4,41.8,37.8,41.8,32.0,58,65,50,0.450,24.1,25.5,21.7,11.16,8.3,191,7.3,13.3,0.00017,0.00022,28.1,33.0,8,0,0,.,6.04,0.00,0.00
15min,AgWx,beryljct,423,22DEC2020:06:30:00,30.3,12.58,43.1,42.7,42.3,42.8,41.9,49,50,47,0.441,24.3,24.7,24.1,12.58,11.5,192,7.2,15.7,0.00033,0.00040,28.1,33.0,8,0,0,.,6.03,0.00,0.00
15min,AgWx,beryljct,423,22DEC2020:06:45:00,34.2,12.57,43.4,42.2,42.5,42.8,42.0,47,48,47,0.434,23.9,24.1,23.7,15.72,13.0,186,6.2,15.9,0.00037,0.00044,28.0,32.9,8,0,0,.,6.03,0.00,0.00
15min,AgWx,beryljct,423,22DEC2020:07:00:00,36.3,12.56,42.2,42.1,42.5,42.9,42.1,46,48,46,0.422,23.4,23.9,23.0,8.94,11.4,192,8.0,15.4,0.00035,0.00042,28.0,32.9,8,0,0,.,6.03,0.00,0.00
15min,AgWx,beryljct,423,22DEC2020:07:15:00,37.3,12.56,37.9,38.1,40.3,42.0,38.1,49,51,47,0.399,22.5,23.0,21.6,6.905,7.8,207,5.6,9.5,0.00066,0.00115,28.0,32.8,8,0,0,.,6.04,0.00,0.00
15min,AgWx,beryljct,423,22DEC2020:07:30:00,36.7,12.55,42.1,41.0,38.0,41.0,36.7,52,54,47,0.411,21.7,22.5,21.0,8.55,7.4,206,4.8,9.9,0.00056,0.00098,28.0,32.8,8,0,0,.,6.04,0.00,0.00
15min,AgWx,beryljct,423,22DEC2020:07:45:00,36.9,12.56,36.6,37.1,40.4,41.4,37.1,47,51,46,0.383,21.8,22.5,20.7,6.16,7.0,205,7.7,11.4,0.00064,0.00111,28.1,32.7,8,5,0,.,6.04,0.00,0.00
15min,AgWx,beryljct,423,22DEC2020:08:00:00,36.8,12.57,39.5,40.3,39.3,41.7,36.5,49,53,46,0.399,21.9,22.8,20.7,7.497,7.2,199,13,11.2,0.00063,0.00108,28.2,32.7,8,10,0,.,6.04,0.00,0.00
15min,AgWx,beryljct,423,22DEC2020:08:15:00,37.4,12.88,41.3,41.3,40.4,41.3,39.5,48,49,47,0.414,22.2,22.6,21.5,7.432,8.3,208,9.1,10.0,0.00086,0.00138,28.2,32.6,9,45,0,.,6.03,0.00,0.00
15min,AgWx,beryljct,423,22DEC2020:08:30:00,38.1,13.04,40.4,40.3,41.2,42.9,40.2,47,49,45,0.412,22.4,23.0,22.0,6.927,8.4,186,11,11.6,0.00090,0.00146,28.3,32.6,8,47,0,.,6.03,0.00,0.00
15min,AgWx,beryljct,423,22DEC2020:08:45:00,38.5,13.01,42.5,42.5,40.8,42.5,39.6,48,50,46,0.421,22.8,23.3,22.3,9.49,9.1,181,12,15.1,0.00088,0.00144,28.4,32.5,8,37,0,.,6.03,0.00,0.00
15min,AgWx,beryljct,423,22DEC2020:09:00:00,39.6,14.64,45.4,44.3,43.0,44.3,42.0,45,46,43,0.427,23.1,23.3,22.8,19.25,13.3,171,9.3,19.3,0.00137,0.00217,28.4,32.5,8,113,0,.,6.03,0.00,0.00
15min,AgWx,beryljct,423,22DEC2020:09:15:00,41.9,14.58,45.5,45.3,45.1,45.4,44.4,42,43,41,0.420,23.1,23.3,22.9,16.35,15.8,174,9.0,21.5,0.00180,0.00281,28.5,32.4,8,199,0,.,6.03,0.00,0.00
15min,AgWx,beryljct,423,22DEC2020:09:30:00,43.9,14.49,46.2,45.9,45.6,46.0,45.3,41,41,40,0.423,23.0,23.4,22.8,10.28,13.5,178,9.6,18.2,0.00186,0.00282,28.6,32.4,8,235,0,.,6.03,0.00,0.00
15min,AgWx,beryljct,423,22DEC2020:09:45:00,45.6,14.5,49.7,49.2,46.7,49.2,45.8,39,41,34,0.410,23.3,23.8,22.4,10.72,9.1,176,19,12.8,0.00182,0.00261,28.7,32.4,8,271,0,.,6.02,0.00,0.00
15min,AgWx,beryljct,423,22DEC2020:10:00:00,47.7,14.44,50.4,50.1,49.9,50.3,49.3,33,34,32,0.395,21.8,22.5,21.1,18.55,15.5,205,10,23.4,0.00253,0.00383,28.9,32.3,8,307,0,.,6.02,0.00,0.00
15min,AgWx,beryljct,423,22DEC2020:10:15:00,49.4,14.41,51.3,50.9,50.5,50.9,50.1,32,32,31,0.398,21.5,21.9,21.3,14.01,15.7,205,8.4,20.0,0.00271,0.00407,29.1,32.3,8,341,0,.,6.02,0.00,0.00
15min,AgWx,beryljct,423,22DEC2020:10:30:00,50.6,14.52,51.4,51.4,51.0,51.4,50.7,31,32,30,0.387,21.2,21.7,20.8,19.49,17.2,208,7.9,22.1,0.00292,0.00439,29.3,32.3,8,373,0,.,6.02,0.00,0.00
15min,AgWx,beryljct,423,22DEC2020:10:45:00,51.6,14.39,52.9,52.4,51.9,52.5,51.4,29,30,28,0.384,20.7,21.1,20.3,15.32,16.8,203,9.3,21.4,0.00309,0.00461,29.5,32.3,8,401,0,.,6.01,0.00,0.00
15min,AgWx,beryljct,423,22DEC2020:11:00:00,52.4,14.52,52.8,52.1,52.2,52.5,51.9,28,29,28,0.373,20.4,20.8,19.9,13.79,16.9,200,7.6,21.2,0.00322,0.00478,29.8,32.2,8,427,0,.,6.01,0.00,0.00
15min,AgWx,beryljct,423,22DEC2020:11:15:00,53.0,14.07,53.8,52.5,52.3,52.6,52.0,28,28,27,0.369,19.9,20.4,19.5,14.62,19.8,200,9.6,26.2,0.00343,0.00514,30.1,32.2,8,449,0,.,6.01,0.00,0.00
15min,AgWx,beryljct,423,22DEC2020:11:30:00,53.6,13.97,53.8,53.1,53.0,53.4,52.4,27,29,25,0.368,19.7,21.2,18.3,16.95,18.2,213,18,27.3,0.00348,0.00517,30.4,32.2,8,470,0,.,6.01,0.00,0.00
15min,AgWx,beryljct,423,22DEC2020:11:45:00,54.0,13.96,53.8,53.2,53.1,53.4,52.9,27,27,25,0.370,19.8,20.3,18.5,19.93,19.2,216,11,27.5,0.00357,0.00531,30.8,32.2,8,486,0,.,6.01,0.00,0.00
15min,AgWx,beryljct,423,22DEC2020:12:00:00,54.4,13.94,54.0,53.9,53.7,54.6,52.7,26,27,25,0.348,20.0,20.7,18.5,28.92,18.0,228,12,28.9,0.00361,0.00532,31.1,32.2,8,498,0,.,6.01,0.00,0.00
15min,AgWx,beryljct,423,22DEC2020:12:15:00,54.9,13.96,54.9,54.8,54.5,55.1,53.8,22,27,18,0.266,15.8,20.5,12.1,24.33,21.8,248,18,29.8,0.00401,0.00607,31.5,32.3,8,507,0,.,6.00,0.00,0.00
15min,AgWx,beryljct,423,22DEC2020:12:30:00,55.2,13.93,55.2,54.9,54.8,55.0,54.6,18,19,18,0.265,12.2,12.8,11.3,20.96,23.0,258,10,30.5,0.00423,0.00645,31.9,32.3,8,514,0,.,6.00,0.00,0.00
15min,AgWx,beryljct,423,22DEC2020:12:45:00,55.4,13.93,54.8,54.7,54.7,55.1,54.4,18,19,18,0.265,12.4,12.9,11.9,21.48,20.7,259,10,26.8,0.00411,0.00620,32.3,32.3,8,516,0,.,6.00,0.00,0.00
15min,AgWx,beryljct,423,22DEC2020:13:00:00,55.5,13.94,54.5,54.7,54.6,55.1,54.3,18,19,17,0.256,11.4,12.8,10.8,18.37,19.4,261,11,27.1,0.00405,0.00609,32.7,32.3,8,513,0,.,6.00,0.00,0.00
15min,AgWx,beryljct,423,22DEC2020:13:15:00,55.7,13.94,55.1,54.6,54.6,55.1,54.2,17,18,17,0.260,11.1,11.8,10.1,14.36,17.1,256,14,26.0,0.00392,0.00582,33.1,32.4,8,508,0,.,5.99,0.00,0.00
15min,AgWx,beryljct,423,22DEC2020:13:30:00,55.8,13.89,54.6,54.6,54.8,55.5,54.5,16,18,15,0.227,9.6,11.8,8.1,20.1,17.6,265,11,24.6,0.00394,0.00591,33.5,32.4,9,496,0,.,6.00,0.00,0.00
15min,AgWx,beryljct,423,22DEC2020:13:45:00,55.9,13.88,54.6,55.1,54.8,55.4,54.5,16,16,15,0.224,9.3,10.0,8.4,27.01,18.7,265,11,27.7,0.00397,0.00601,33.9,32.4,9,483,0,.,6.00,0.00,0.00
15min,AgWx,beryljct,423,22DEC2020:14:00:00,56.1,13.91,55.6,55.1,55.0,55.4,54.6,16,17,15,0.236,9.6,10.7,8.3,14.07,17.7,259,12,24.2,0.00378,0.00577,34.3,32.5,8,441,0,.,6.00,0.00,0.00
15min,AgWx,beryljct,423,22DEC2020:14:15:00,56.3,13.86,54.8,55.0,54.8,55.2,54.2,16,17,16,0.230,9.5,10.3,8.9,25.3,18.0,250,9.7,25.6,0.00377,0.00574,34.7,32.6,8,446,0,.,6.00,0.00,0.00
15min,AgWx,beryljct,423,22DEC2020:14:30:00,56.5,13.85,55.5,54.9,54.9,55.3,54.6,15,16,14,0.216,8.0,9.4,6.8,12.85,18.1,258,10,23.4,0.00371,0.00573,35.0,32.7,8,414,0,.,6.00,0.00,0.00
15min,AgWx,beryljct,423,22DEC2020:14:45:00,56.6,13.88,54.8,55.1,55.0,55.4,54.7,15,15,14,0.212,8.2,8.7,7.3,26.88,19.0,254,7.9,27.0,0.00367,0.00573,35.4,32.7,8,393,0,.,6.00,0.00,0.00
15min,AgWx,beryljct,423,22DEC2020:15:00:00,56.6,13.88,55.1,54.6,54.9,55.0,54.6,14,15,14,0.205,6.5,7.3,5.7,19.07,21.5,263,11,29.2,0.00376,0.00598,35.7,32.8,8,364,0,.,6.00,0.00,0.00
15min,AgWx,beryljct,423,22DEC2020:15:15:00,56.5,13.88,54.7,54.8,54.7,54.9,54.6,14,15,14,0.205,7.2,7.9,6.5,16.55,19.0,263,9.6,24.1,0.00345,0.00551,36.0,32.9,8,331,0,.,6.00,0.00,0.00
15min,AgWx,beryljct,423,22DEC2020:15:30:00,56.4,13.88,53.9,53.8,54.3,54.8,53.8,12,14,11,0.165,3.4,6.6,1.0,19.25,19.8,275,9.2,26.8,0.00341,0.00553,36.2,33.0,8,298,0,.,6.00,0.00,0.00
15min,AgWx,beryljct,423,22DEC2020:15:45:00,56.0,13.9,53.4,53.3,53.4,53.9,53.3,12,13,11,0.178,1.8,3.6,0.7,19.49,18.3,279,7.3,25.2,0.00312,0.00513,36.5,33.1,8,262,0,.,6.00,0.00,0.00
15min,AgWx,beryljct,423,22DEC2020:16:00:00,55.6,13.91,52.7,52.4,52.9,53.3,52.4,11,13,10,0.143,-0.4,3.4,-1.6,25.19,18.9,283,8.8,25.6,0.00301,0.00503,36.7,33.2,9,225,0,.,6.00,0.00,0.00
15min,AgWx,beryljct,423,22DEC2020:16:15:00,55.1,13.95,51.8,51.7,52.0,52.5,51.6,11,12,10,0.160,-0.1,1.2,-1.8,17.45,18.9,286,7.9,25.5,0.00282,0.00479,36.8,33.3,8,187,0,.,6.00,0.00,0.00
15min,AgWx,beryljct,423,22DEC2020:16:30:00,54.4,13.93,50.7,50.8,51.2,51.7,50.7,13,14,12,0.177,2.1,3.3,1.3,13.92,14.3,294,9.8,18.7,0.00104,0.00121,37.0,33.4,8,148,0,.,6.00,0.00,0.00
15min,AgWx,beryljct,423,22DEC2020:16:45:00,53.5,13.96,48.9,49.6,50.2,50.7,49.6,15,16,14,0.188,3.9,4.8,2.6,8.13,13.5,300,8.1,17.6,0.00094,0.00110,37.1,33.6,8,109,0,.,6.00,0.00,0.00
15min,AgWx,beryljct,423,22DEC2020:17:00:00,52.2,13.19,46.8,47.7,48.7,49.5,47.7,16,16,15,0.184,4.2,4.6,3.8,7.3,10.1,310,8.8,14.5,0.00074,0.00089,37.2,33.6,8,57,0,.,6.00,0.00,0.00
15min,AgWx,beryljct,423,22DEC2020:17:15:00,50.1,13.09,46.0,45.8,46.4,47.5,45.4,17,19,16,0.184,4.3,5.0,3.8,10.98,8.5,320,10,12.4,0.00056,0.00070,37.2,33.8,8,12,0,.,6.00,0.00,0.00
15min,AgWx,beryljct,423,22DEC2020:17:30:00,47.7,13.04,43.2,42.5,44.1,46.0,42.3,18,20,17,0.179,3.8,4.1,3.5,9.89,8.5,296,7.1,12.5,0.00051,0.00064,37.2,33.9,9,5,0,.,6.00,0.00,0.00
15min,AgWx,beryljct,423,22DEC2020:17:45:00,45.3,13.02,42.9,42.5,41.8,42.6,40.9,18,20,16,0.146,1.1,3.5,-0.8,10.3,8.7,293,8.0,11.8,0.00048,0.00060,37.2,34.0,8,1,0,.,6.00,0.00,0.00
15min,AgWx,beryljct,423,22DEC2020:18:00:00,43.8,13,41.2,41.5,42.1,42.6,41.4,16,17,16,0.149,-0.8,-0.4,-0.9,8.48,9.3,295,6.7,11.1,0.00052,0.00064,37.1,34.1,8,0,0,.,6.00,0.00,0.00
15min,AgWx,beryljct,423,22DEC2020:18:15:00,42.4,12.96,38.0,38.1,39.9,41.4,38.1,18,21,17,0.164,-0.3,1.7,-1.0,7.432,8.4,302,13,9.8,0.00045,0.00055,37.0,34.2,9,0,0,.,6.01,0.00,0.00
15min,AgWx,beryljct,423,22DEC2020:18:30:00,41.1,12.97,38.6,38.5,38.8,39.4,37.9,24,26,21,0.208,5.4,7.0,1.7,10.9,9.8,333,8.8,12.3,0.00043,0.00052,36.8,34.3,9,0,0,.,6.01,0.00,0.00
15min,AgWx,beryljct,423,22DEC2020:18:45:00,40.4,12.95,36.8,38.2,38.5,39.3,38.1,28,28,26,0.220,8.2,9.1,6.9,9.62,12.0,357,13,14.2,0.00045,0.00053,36.7,34.4,9,0,0,.,6.01,0.00,0.00
15min,AgWx,beryljct,423,22DEC2020:19:00:00,39.8,12.95,37.1,37.1,37.5,38.7,36.2,30,33,28,0.248,8.9,10.9,6.7,8.26,10.9,36,15,19.6,0.00040,0.00048,36.5,34.5,8,0,0,.,6.01,0.00,0.00
15min,AgWx,beryljct,423,22DEC2020:19:15:00,38.9,12.92,34.5,34.5,35.5,37.0,34.5,38,44,33,0.294,12.4,14.6,10.6,9.78,8.2,55,11,10.9,0.00027,0.00033,36.3,34.6,9,0,0,.,6.01,0.00,0.00
15min,AgWx,beryljct,423,22DEC2020:19:30:00,37.9,12.92,34.9,34.4,34.5,34.9,34.3,48,51,44,0.343,16.9,18.2,14.7,14.99,12.7,56,7.8,18.3,0.00028,0.00032,36.1,34.7,8,0,0,.,6.01,0.00,0.00
15min,AgWx,beryljct,423,22DEC2020:19:45:00,37.2,12.91,34.2,34.0,34.3,34.6,33.9,51,52,51,0.342,18.2,18.4,18.0,12.96,15.2,56,8.7,19.4,0.00028,0.00032,35.9,34.7,8,0,0,.,6.01,0.00,0.00
15min,AgWx,beryljct,423,22DEC2020:20:00:00,36.6,12.91,33.4,33.2,33.6,34.0,33.2,52,52,51,0.328,17.6,18.1,17.1,11.62,12.7,57,8.2,17.8,0.00025,0.00029,35.8,34.8,8,0,0,.,6.01,0.00,0.00
15min,AgWx,beryljct,423,22DEC2020:20:15:00,35.9,12.9,32.4,32.0,32.5,33.2,32.0,52,53,51,0.320,16.9,17.2,16.6,12.5,11.3,55,8.4,15.9,0.00022,0.00026,35.6,34.8,9,0,0,.,6.01,0.00,0.00
15min,AgWx,beryljct,423,22DEC2020:20:30:00,35.2,12.89,32.5,31.5,31.8,32.2,31.5,52,52,51,0.305,16.0,16.6,15.4,11.93,11.4,56,9.0,16.2,0.00022,0.00026,35.4,34.9,9,0,0,.,6.01,0.00,0.00
15min,AgWx,beryljct,423,22DEC2020:20:45:00,34.5,12.87,31.0,30.6,31.2,31.6,30.5,50,51,50,0.290,14.8,15.6,14.2,9.21,10.7,57,9.2,14.4,0.00021,0.00025,35.2,34.9,8,0,0,.,6.01,0.00,0.00
15min,AgWx,beryljct,423,22DEC2020:21:00:00,33.7,12.88,29.8,30.0,30.5,30.8,29.9,49,50,49,0.279,13.8,14.3,13.3,6.226,8.9,63,9.5,12.4,0.00019,0.00023,35.1,35.0,9,0,0,.,6.01,0.00,0.00
15min,AgWx,beryljct,423,22DEC2020:21:15:00,33.0,12.86,29.7,29.6,29.5,29.9,29.2,49,50,47,0.262,12.7,13.3,12.0,8.42,8.1,68,11,15.8,0.00017,0.00021,34.9,35.0,8,0,0,.,6.01,0.00,0.00
15min,AgWx,beryljct,423,22DEC2020:21:30:00,32.3,12.87,29.6,29.0,29.2,29.6,28.9,46,47,46,0.248,11.2,12.0,10.6,14.03,11.0,48,8.5,15.8,0.00022,0.00026,34.7,35.0,9,0,0,.,6.02,0.00,0.00
15min,AgWx,beryljct,423,22DEC2020:21:45:00,31.7,12.86,28.8,28.2,28.6,29.2,28.2,46,47,46,0.242,10.6,10.9,10.2,9.25,9.8,49,8.8,14.9,0.00020,0.00024,34.5,35.0,8,0,0,.,6.02,0.00,0.00
15min,AgWx,beryljct,423,22DEC2020:22:00:00,31.0,12.85,26.7,27.2,27.7,28.2,27.2,46,47,46,0.231,9.7,10.3,9.2,4.669,8.2,56,13,12.0,0.00017,0.00021,34.3,35.0,9,0,0,.,6.02,0.00,0.00
15min,AgWx,beryljct,423,22DEC2020:22:15:00,30.0,12.85,26.4,25.3,26.2,27.2,25.3,47,49,46,0.221,8.9,9.2,8.1,0.526,2.6,140,61,6.4,-0.00000,0.00002,34.1,35.1,9,0,0,.,6.02,0.00,0.00
15min,AgWx,beryljct,423,22DEC2020:22:30:00,28.9,12.83,25.9,25.3,25.6,26.4,24.9,47,48,46,0.224,8.2,8.8,7.8,3.968,4.0,72,35,6.5,0.00005,0.00008,34.0,35.1,8,0,0,.,6.02,0.00,0.00
15min,AgWx,beryljct,423,22DEC2020:22:45:00,27.8,12.83,24.1,24.6,24.7,25.4,24.0,49,50,48,0.219,8.4,8.7,7.9,3.288,4.0,110,11,6.1,0.00005,0.00007,33.8,35.1,9,0,0,.,6.02,0.00,0.00
15min,AgWx,beryljct,423,22DEC2020:23:00:00,27.0,12.82,24.8,24.2,24.3,24.6,24.0,48,49,47,0.212,7.5,7.9,7.1,4.626,3.8,81,15,5.7,0.00004,0.00007,33.6,35.1,9,0,0,.,6.02,0.00,0.00
15min,AgWx,beryljct,423,22DEC2020:23:15:00,26.3,12.82,23.2,23.4,23.8,24.2,23.4,48,49,48,0.207,7.0,7.3,6.5,1.841,3.7,81,21,5.8,0.00004,0.00007,33.3,35.1,9,0,0,.,6.02,0.00,0.00
15min,AgWx,beryljct,423,22DEC2020:23:30:00,25.6,12.8,24.4,23.7,23.2,23.8,22.6,48,49,48,0.207,6.6,7.2,6.1,2.214,2.7,172,36,5.3,-0.00000,0.00001,33.1,35.1,9,0,0,.,6.02,0.00,0.00
15min,AgWx,beryljct,423,22DEC2020:23:45:00,25.0,12.8,22.1,22.6,23.4,24.1,22.6,47,48,46,0.198,6.3,6.8,5.7,2.302,2.3,145,31,4.2,-0.00002,-0.00001,32.9,35.1,9,0,0,.,6.03,0.00,0.00
15min,AgWx,bigpiney,439,22DEC2020:00:00:00,22.1,12.65,20.5,20.2,20.0,20.5,19.0,94,95,92,0.350,18.4,19.1,17.1,4.362,3.4,324,9.4,4.8,-0.00001,-0.00001,30.9,32.4,34,0,0,0.0,0.01,0.00,0.00
15min,AgWx,bigpiney,439,22DEC2020:00:15:00,21.9,12.65,21.9,20.9,20.0,20.9,19.5,94,95,93,0.363,18.5,19.5,17.7,3.135,2.8,323,7.5,4.8,-0.00001,-0.00001,30.9,32.4,34,0,0,0.0,0.01,0.00,0.00
15min,AgWx,bigpiney,439,22DEC2020:00:30:00,21.9,12.64,22.3,21.8,21.3,21.8,20.9,94,95,94,0.379,20.0,20.5,19.5,3.529,3.2,322,8.8,4.0,-0.00001,-0.00001,30.9,32.3,34,0,0,0.0,0.01,0.00,0.00
15min,AgWx,bigpiney,439,22DEC2020:00:45:00,21.9,12.63,21.0,20.8,21.0,21.8,20.3,94,95,93,0.361,19.5,20.5,18.7,3.595,2.0,307,13,3.8,-0.00002,-0.00002,30.9,32.4,34,0,0,0.0,0.01,0.00,0.00
15min,AgWx,bigpiney,439,22DEC2020:01:00:00,21.9,12.64,22.6,21.6,21.0,21.6,20.4,94,95,93,0.376,19.5,20.3,18.8,3.288,2.5,282,7.5,4.0,-0.00001,-0.00002,30.9,32.4,34,0,0,0.0,0.01,0.00,0.00
15min,AgWx,bigpiney,439,22DEC2020:01:15:00,22.1,12.63,22.7,22.4,22.2,22.9,21.3,95,95,94,0.387,20.9,21.7,19.9,2.302,2.7,314,22,4.2,-0.00002,-0.00002,30.9,32.4,34,0,0,0.0,0.01,0.00,0.00
15min,AgWx,bigpiney,439,22DEC2020:01:30:00,22.6,12.63,22.8,22.3,22.3,22.6,22.1,94,95,94,0.383,20.9,21.3,20.6,2.368,2.2,327,29,4.0,-0.00002,-0.00002,30.9,32.4,34,0,0,0.0,0.01,0.00,0.00
15min,AgWx,bigpiney,439,22DEC2020:01:45:00,23.1,12.63,23.6,23.2,22.9,23.2,22.2,94,95,94,0.400,21.4,21.8,20.7,0,1.9,305,15,3.0,-0.00002,-0.00003,30.9,32.3,34,0,0,0.0,0.01,0.00,0.00
15min,AgWx,bigpiney,439,22DEC2020:02:00:00,23.7,12.62,24.4,24.1,23.8,24.3,23.2,95,95,94,0.416,22.5,23.0,21.8,1.995,1.9,319,16,3.2,-0.00002,-0.00003,30.9,32.4,34,0,0,0.0,0.01,0.00,0.00
15min,AgWx,bigpiney,439,22DEC2020:02:15:00,24.4,12.61,25.2,24.6,24.4,24.7,24.0,95,95,94,0.429,23.1,23.5,22.6,2.346,1.8,318,27,3.7,-0.00002,-0.00003,30.9,32.4,34,0,0,0.0,0.01,0.00,0.00
15min,AgWx,bigpiney,439,22DEC2020:02:30:00,25.0,12.6,25.4,25.0,24.9,25.2,24.7,95,95,95,0.435,23.7,23.9,23.5,2.718,1.8,338,43,3.4,-0.00002,-0.00003,30.9,32.3,34,0,0,0.0,0.01,0.00,0.00
15min,AgWx,bigpiney,439,22DEC2020:02:45:00,25.6,12.6,25.2,24.9,25.2,25.6,24.9,95,96,95,0.432,24.0,24.5,23.6,0,1.5,7.6,14,2.7,-0.00003,-0.00004,30.9,32.4,34,0,0,0.0,0.01,0.00,0.00
15min,AgWx,bigpiney,439,22DEC2020:03:00:00,26.1,12.6,25.1,24.7,24.9,25.2,24.7,95,95,95,0.429,23.7,24.0,23.4,0.526,0.6,100,34,2.3,-0.00004,-0.00006,30.9,32.4,34,0,0,0.0,0.01,0.00,0.00
15min,AgWx,bigpiney,439,22DEC2020:03:15:00,26.4,12.6,25.2,24.7,24.7,24.8,24.6,95,95,95,0.431,23.4,23.6,23.3,0.329,0.8,136,27,2.3,-0.00004,-0.00005,30.9,32.3,34,0,0,0.0,0.01,0.00,0.00
15min,AgWx,bigpiney,439,22DEC2020:03:30:00,26.6,12.59,25.6,25.2,25.0,25.3,24.7,95,96,95,0.441,23.8,24.2,23.5,1.315,0.5,154,29,1.7,-0.00004,-0.00006,30.9,32.3,34,0,0,0.0,0.01,0.00,0.00
15min,AgWx,bigpiney,439,22DEC2020:03:45:00,26.8,12.59,25.7,25.3,25.3,25.4,25.2,96,96,96,0.445,24.2,24.3,24.1,0.767,0.9,180,45,2.3,-0.00004,-0.00005,30.9,32.4,34,0,0,0.0,0.01,0.00,0.00
15min,AgWx,bigpiney,439,22DEC2020:04:00:00,27.0,12.58,25.9,25.5,25.4,25.6,25.3,96,96,96,0.448,24.4,24.6,24.2,0.153,0.5,239,18,1.8,-0.00004,-0.00006,30.8,32.4,34,0,0,0.0,0.01,0.00,0.00
15min,AgWx,bigpiney,439,22DEC2020:04:15:00,27.2,12.58,25.8,25.4,25.5,25.7,25.4,96,96,96,0.447,24.5,24.7,24.3,0,0.3,12,40,1.5,-0.00004,-0.00007,30.8,32.4,34,0,0,0.0,0.01,0.00,0.00
15min,AgWx,bigpiney,439,22DEC2020:04:30:00,27.3,12.57,25.9,25.6,25.5,25.7,25.4,96,96,96,0.449,24.5,24.7,24.4,1.82,0.5,155,14,1.8,-0.00004,-0.00006,30.9,32.4,34,0,0,0.0,0.01,0.00,0.00
15min,AgWx,bigpiney,439,22DEC2020:04:45:00,27.5,12.57,24.0,23.9,25.1,25.6,23.9,95,96,94,0.415,24.0,24.6,22.6,2.938,2.3,136,22,3.8,-0.00002,-0.00002,30.9,32.4,34,0,0,0.0,0.01,0.00,0.00
15min,AgWx,bigpiney,439,22DEC2020:05:00:00,27.3,12.56,24.2,23.9,23.9,24.1,23.8,95,95,95,0.417,22.7,23.0,22.5,1.951,1.7,139,16,3.6,-0.00002,-0.00003,30.8,32.4,34,0,0,0.0,0.01,0.00,0.00
15min,AgWx,bigpiney,439,22DEC2020:05:15:00,27.1,12.56,23.6,23.2,23.2,23.9,23.0,95,95,94,0.403,21.9,22.7,21.7,1.469,1.8,125,11,3.2,-0.00002,-0.00003,30.8,32.3,34,0,0,0.0,0.01,0.00,0.00
15min,AgWx,bigpiney,439,22DEC2020:05:30:00,26.8,12.55,24.3,23.8,23.5,23.8,23.2,95,95,95,0.414,22.2,22.6,21.9,1.556,2.4,148,10,3.9,-0.00002,-0.00002,30.8,32.4,35,0,0,0.0,0.01,0.00,0.00
15min,AgWx,bigpiney,439,22DEC2020:05:45:00,26.6,12.55,24.7,24.2,23.9,24.3,23.7,95,95,95,0.420,22.7,23.0,22.5,1.096,1.7,136,10,3.0,-0.00002,-0.00003,30.8,32.3,35,0,0,0.0,0.01,0.00,0.00
15min,AgWx,bigpiney,439,22DEC2020:06:00:00,26.6,12.55,24.7,24.4,24.4,24.7,24.2,95,95,95,0.424,23.2,23.6,22.9,1.403,2.1,143,21,3.7,-0.00002,-0.00003,30.8,32.3,35,0,0,0.0,0.01,0.00,0.00
15min,AgWx,bigpiney,439,22DEC2020:06:15:00,26.6,12.53,22.5,22.7,24.1,24.4,22.7,95,95,93,0.387,22.7,23.2,21.0,0.482,1.1,169,40,3.0,-0.00003,-0.00004,30.8,32.4,35,0,0,0.0,0.01,0.00,0.00
15min,AgWx,bigpiney,439,22DEC2020:06:30:00,26.4,12.54,21.2,20.9,21.3,22.6,20.7,93,94,93,0.360,19.6,20.9,19.0,1.995,2.1,63,36,3.7,-0.00002,-0.00002,30.8,32.3,35,0,0,0.0,0.01,0.00,0.00
15min,AgWx,bigpiney,439,22DEC2020:06:45:00,25.8,12.52,21.2,20.9,20.8,21.0,20.6,93,94,93,0.359,19.2,19.4,18.9,3.836,2.7,138,63,5.6,-0.00001,-0.00001,30.8,32.4,35,0,0,0.0,0.01,0.00,0.00
15min,AgWx,bigpiney,439,22DEC2020:07:00:00,25.1,12.52,21.1,20.6,20.7,20.9,20.6,93,93,93,0.356,19.1,19.3,18.9,1.074,4.7,157,28,9.4,-0.00000,0.00000,30.8,32.4,35,0,0,0.0,0.01,0.00,0.00
15min,AgWx,bigpiney,439,22DEC2020:07:15:00,24.6,12.51,20.7,20.8,20.8,20.9,20.6,93,94,93,0.359,19.2,19.3,19.0,3.157,1.4,315,60,3.2,-0.00002,-0.00003,30.8,32.3,35,0,0,0.0,0.01,0.00,0.00
15min,AgWx,bigpiney,439,22DEC2020:07:30:00,24.3,12.51,20.5,20.1,20.2,20.7,20.0,93,93,93,0.347,18.4,19.1,18.3,3.771,2.4,62,54,4.6,-0.00001,-0.00001,30.8,32.3,35,0,0,0.0,0.01,0.00,0.00
15min,AgWx,bigpiney,439,22DEC2020:07:45:00,24.0,12.52,19.9,19.6,20.0,20.2,19.6,93,93,92,0.338,18.3,18.5,17.8,2.083,2.3,63,20,3.8,-0.00001,-0.00001,30.8,32.4,35,2,0,0.0,0.01,0.00,0.00
15min,AgWx,bigpiney,439,22DEC2020:08:00:00,23.7,12.55,19.3,19.0,19.3,19.7,19.0,92,92,92,0.327,17.4,17.8,17.1,3.376,2.4,46,18,4.6,-0.00000,-0.00000,30.8,32.2,35,8,0,0.0,0.01,0.00,0.00
15min,AgWx,bigpiney,439,22DEC2020:08:15:00,23.4,12.63,18.9,18.6,18.9,19.1,18.6,92,92,92,0.322,17.0,17.3,16.6,7.059,3.0,90,31,7.1,-0.00009,-0.00008,30.8,32.4,35,14,0,0.0,0.01,0.00,0.00
15min,AgWx,bigpiney,439,22DEC2020:08:30:00,22.9,12.82,18.1,17.8,18.2,18.6,17.8,92,92,91,0.309,16.2,16.7,15.7,2.105,3.2,120,65,7.3,-0.00004,-0.00003,30.8,32.4,35,32,0,0.0,0.01,0.00,0.00